Theta_e
316 320 321 321 325 325 327 329 329 330 331 332 336 341 340 337 342 351 346 345 346 342 343 336 339 336 336 335 335 335 335 335 337 334 334 332 331 327 325 326 333 336 330 326 326 325 323 322 321
321 320 320 323 325 326 327 327 329 329 328 332 334 339 339 343 343 347 347 344 344 344 342 341 339 340 338 338 337 336 334 334 333 333 332 331 327 326 326 328 330 330 327 328 329 328 329 328 326
319 319 321 324 324 325 326 326 327 328 327 330 333 340 340 344 344 346 345 344 344 343 341 340 334 339 339 339 338 336 334 333 333 332 330 327 325 326 326 328 327 328 328 329 328 328 328 328 329
320 320 321 324 325 325 326 326 329 329 328 325 329 338 341 343 344 345 344 343 343 342 342 340 328 327 334 336 335 334 333 330 332 331 328 325 327 326 327 329 330 329 328 327 325 322 318 317 317
321 323 325 325 325 325 326 327 328 332 331 330 333 341 344 344 345 345 344 343 342 342 342 340 326 326 330 330 330 331 329 330 330 328 326 325 326 327 328 330 329 327 326 321 315 312 312 311 311
325 325 327 327 325 325 326 325 328 333 336 337 338 338 345 345 345 345 344 342 342 342 341 338 328 335 336 334 334 334 333 332 333 331 327 326 328 329 329 328 326 325 320 314 311 310 309 309 309
325 327 327 326 325 325 326 325 326 329 332 337 338 337 346 344 345 344 344 342 342 342 340 338 334 334 334 335 335 335 335 334 333 333 327 328 329 331 330 326 325 322 315 311 310 309 309 309 309
324 326 326 326 326 326 325 324 324 325 332 331 332 336 343 345 343 343 343 342 341 339 340 338 339 336 334 334 334 334 335 333 332 330 329 329 332 332 329 326 325 319 311 309 309 309 309 309 309
323 325 327 326 325 326 324 324 324 325 326 330 331 330 339 343 342 341 341 342 342 340 341 338 337 337 337 336 333 333 333 333 333 335 334 333 333 331 329 327 323 315 309 309 309 308 308 308 308
324 327 327 326 325 325 324 324 324 325 325 328 331 333 336 342 341 341 341 341 339 339 340 340 339 338 338 339 336 332 332 332 333 333 333 333 329 328 325 326 321 313 309 308 308 308 308 308 310
325 326 326 325 324 324 324 325 325 325 326 325 325 325 336 337 340 341 340 341 341 341 341 340 340 339 339 338 338 334 334 333 332 332 333 332 328 326 323 324 318 312 308 308 307 307 308 319 318
326 325 325 325 324 324 325 325 325 325 325 325 324 325 326 336 336 338 341 340 340 340 337 341 339 339 339 338 336 334 333 336 333 334 332 331 331 330 323 322 319 313 309 309 308 308 316 318 318
326 326 325 324 324 324 325 325 326 325 325 324 324 324 326 327 333 335 337 340 339 339 338 337 339 338 338 337 335 334 334 335 333 332 331 331 331 329 328 323 322 315 311 314 314 314 317 317 317
326 326 325 325 325 325 326 325 325 325 324 325 326 326 326 327 330 333 336 338 340 340 339 338 337 335 336 334 334 333 332 332 332 332 331 330 330 324 326 324 319 313 313 314 314 315 316 316 316
325 326 326 326 326 326 324 325 325 324 326 325 325 327 327 328 331 332 334 337 339 339 341 338 336 335 334 333 332 332 330 330 331 331 330 330 330 330 326 323 318 314 314 314 314 315 316 316 316
326 326 327 327 326 325 323 325 326 324 324 324 324 324 325 326 328 330 333 335 338 339 339 340 336 335 333 332 331 330 329 328 329 329 329 330 330 328 326 320 315 314 314 314 314 314 316 316 315
327 328 327 326 326 325 325 326 326 325 324 325 324 324 325 323 325 327 328 331 334 336 339 339 337 335 333 332 331 330 328 328 328 329 328 327 328 327 322 314 314 314 314 313 313 314 315 316 315
327 326 325 325 326 325 325 325 325 324 324 324 323 323 324 321 322 322 322 323 328 332 336 339 337 335 332 331 330 329 328 325 324 326 323 321 321 320 316 313 315 314 313 312 312 312 315 315 314
323 323 323 323 323 323 323 324 324 323 324 324 323 323 321 320 321 323 323 323 327 329 332 337 335 332 332 329 328 327 326 324 326 322 320 320 318 316 314 314 314 313 312 312 311 312 314 315 314
322 323 324 324 323 324 324 323 323 324 323 323 323 321 321 320 322 324 325 327 328 329 330 333 333 330 330 329 328 326 323 322 324 323 318 318 317 316 315 313 313 312 312 312 311 311 314 314 312
323 323 324 324 322 323 323 323 324 322 321 319 319 321 321 322 323 323 325 327 329 329 330 330 329 328 329 329 327 325 324 320 317 317 316 316 314 313 312 312 311 311 311 311 311 310 313 313 311
323 322 321 321 322 324 323 323 324 323 322 320 320 321 322 322 322 322 323 324 325 325 323 324 321 322 324 325 325 323 323 320 317 314 313 312 311 310 311 310 310 309 309 309 310 310 312 312 310
321 319 320 319 321 322 322 323 324 322 320 320 322 322 322 321 321 321 321 322 322 322 314 312 313 316 318 320 321 323 321 319 317 315 313 311 310 308 308 308 307 306 306 306 308 309 310 310 309
318 319 320 321 322 322 323 322 323 322 322 321 322 321 322 322 321 319 318 318 316 311 311 311 311 311 313 318 320 320 321 320 317 314 313 312 311 309 308 307 305 304 303 303 304 307 308 308 308
319 320 324 326 327 326 324 320 321 321 319 319 321 320 320 318 320 320 319 317 317 317 316 309 309 311 314 314 312 313 314 314 313 313 312 311 310 309 310 307 306 304 302 302 301 301 303 307 307
321 321 323 325 326 325 323 323 323 320 319 319 319 319 318 317 316 316 316 316 317 317 317 317 318 317 316 313 310 310 312 311 311 310 310 310 308 308 307 306 305 303 302 300 299 298 299 301 305
320 321 320 320 321 323 322 322 322 320 319 319 319 318 317 316 315 314 313 312 311 311 315 317 317 317 317 316 313 314 314 311 311 311 309 308 307 305 304 303 302 301 300 300 301 300 297 297 300
317 319 320 319 320 322 322 322 322 320 320 319 319 318 317 315 314 312 311 310 310 310 310 316 316 316 317 316 316 315 313 313 311 310 310 310 309 307 305 301 300 300 300 300 298 295 295 295 295
319 316 317 318 319 322 324 322 318 318 317 317 317 315 313 312 311 310 310 309 309 310 310 312 315 315 316 316 316 314 314 312 311 310 309 309 308 306 305 301 300 300 300 300 299 298 295 293 294
316 317 318 321 318 320 321 323 318 317 316 315 313 312 311 310 309 309 309 309 309 310 311 311 312 314 316 316 316 315 311 311 307 308 308 309 308 307 306 302 299 298 297 296 294 293 293 294 294
Wind_Speed
5 3 3 7 7 7 13 6 8 3 6 5 4 8 11 9 12 5 2 3 9 15 14 23 22 22 20 18 17 16 16 15 14 13 12 11 9 9 8 7 5 4 2 2 2 2 2 2 3
1 4 4 8 7 11 7 7 6 7 6 1 1 2 1 13 10 5 2 3 11 17 17 18 22 20 20 19 18 18 17 17 16 14 14 12 11 11 9 8 7 6 4 3 2 1 2 3 2
5 5 10 5 6 8 10 4 5 4 0 4 1 3 5 5 5 3 3 8 15 21 18 19 22 22 21 21 20 18 17 15 16 16 14 13 12 10 7 8 6 5 5 4 3 2 2 3 3
4 6 7 8 5 9 8 6 4 2 7 3 6 5 5 3 2 3 7 12 13 15 17 19 23 22 23 23 21 19 17 17 18 16 16 14 12 10 7 7 6 5 5 5 4 4 4 4 3
4 6 7 11 4 3 1 7 6 4 4 6 6 9 5 4 5 7 9 13 15 12 15 16 21 20 21 21 21 20 18 20 20 19 17 15 13 10 9 8 7 7 6 6 5 5 5 5 5
12 5 9 6 6 3 3 2 2 2 3 6 5 1 8 6 6 8 10 14 15 15 16 16 19 17 16 17 17 16 18 19 18 17 16 15 13 11 10 9 8 8 8 8 7 6 6 5 5
12 6 12 5 1 5 3 2 2 2 4 11 3 11 9 6 7 9 11 15 19 19 18 19 19 19 18 18 18 18 18 16 16 16 15 14 13 11 10 10 10 10 9 8 7 7 6 5 5
12 6 10 4 3 1 6 4 1 8 10 3 3 4 10 9 9 10 11 10 17 17 16 18 19 19 20 21 20 20 20 18 19 18 17 15 13 13 11 11 12 11 10 9 9 8 7 7 7
9 10 11 2 5 4 4 6 6 5 11 5 1 5 5 11 10 11 13 15 14 13 18 18 19 19 19 19 21 20 19 19 19 19 17 15 13 14 13 16 13 12 11 10 10 9 8 7 8
10 10 7 8 3 4 5 8 7 7 14 11 13 10 7 11 11 12 15 16 19 20 19 18 19 20 19 20 25 24 25 23 20 20 19 15 12 10 11 16 14 13 13 12 11 10 9 6 9
11 13 8 6 6 7 10 10 13 10 12 10 9 9 12 12 11 11 13 15 18 23 19 21 21 20 22 26 26 29 27 26 27 25 20 16 14 15 20 14 15 15 13 14 13 11 8 7 8
10 14 11 12 6 9 11 14 15 16 16 12 13 10 7 11 13 15 15 16 18 19 23 21 21 24 24 24 24 24 25 30 30 26 24 21 19 17 13 13 15 16 17 15 16 13 11 14 11
14 13 10 10 12 14 15 16 16 17 11 10 12 12 14 16 14 13 14 15 18 21 21 25 24 29 28 30 26 27 30 29 27 28 25 24 22 20 20 19 17 16 15 16 13 12 14 13 13
12 10 15 17 17 16 14 16 8 14 1 6 8 11 13 16 15 14 14 15 18 18 21 25 25 26 30 28 28 29 30 31 33 31 28 28 23 19 20 22 20 18 17 15 16 16 15 14 14
12 15 17 19 17 11 8 16 18 12 6 10 4 4 6 9 12 14 13 14 16 18 18 22 26 26 23 25 27 28 29 31 31 32 29 29 27 27 24 23 20 16 16 17 15 16 16 16 15
14 14 13 13 4 8 7 14 7 9 10 11 9 6 5 6 8 10 11 12 12 15 18 20 23 25 25 25 26 23 26 27 30 31 31 30 30 29 24 22 21 18 18 19 18 18 17 16 17
12 11 6 6 9 4 9 13 11 8 12 16 15 14 7 7 7 5 7 10 12 14 17 18 21 20 24 23 23 22 20 21 26 27 27 27 28 27 26 21 18 19 17 17 19 19 19 19 18
11 11 11 11 5 9 10 16 17 19 15 14 13 15 7 6 1 2 4 6 10 12 14 17 19 23 25 24 26 24 22 21 20 21 21 21 25 27 26 21 20 22 18 19 19 21 21 21 20
12 13 14 12 10 11 14 16 16 18 16 16 15 19 6 3 1 3 5 5 1 5 9 11 15 20 23 27 28 31 30 25 23 22 20 20 19 22 27 24 22 26 22 23 25 25 25 24 23
10 13 15 12 5 9 16 19 21 21 19 17 13 7 6 6 3 4 6 7 5 1 4 9 16 17 22 27 24 24 26 27 26 29 24 22 22 23 22 25 22 23 21 23 25 28 27 25 28
12 11 12 14 16 18 21 16 12 5 3 5 4 6 6 4 4 5 6 7 6 4 1 6 8 13 19 27 28 26 31 28 25 26 26 23 24 25 25 27 22 20 22 24 27 31 29 29 30
14 8 10 15 16 13 18 19 16 11 14 12 8 5 3 5 5 5 6 7 7 4 3 2 5 10 17 24 29 29 31 33 35 32 32 30 30 32 36 34 33 23 21 24 27 29 30 29 33
14 13 13 17 17 19 17 13 14 7 11 11 12 10 9 6 4 4 3 4 4 4 5 6 8 10 14 17 20 24 29 33 39 38 36 34 31 30 29 32 30 27 24 20 26 25 30 27 31
14 18 20 20 16 13 17 9 7 4 9 15 12 9 6 6 4 2 2 3 3 6 9 12 15 17 16 17 16 18 22 27 33 38 35 34 32 29 29 28 28 27 27 23 23 28 29 27 27
13 13 9 8 9 14 11 6 12 10 6 5 10 8 5 3 2 2 2 4 6 8 11 17 17 17 14 9 10 15 17 21 26 29 32 32 32 33 34 35 34 34 33 27 25 24 30 31 27
13 11 10 17 13 17 21 13 7 9 9 10 10 10 8 6 4 4 6 10 15 17 16 16 17 16 17 13 12 14 16 18 22 26 27 26 28 30 29 30 29 28 27 27 22 22 24 27 29
9 12 14 19 19 17 12 19 12 13 9 8 11 10 7 6 8 11 16 21 25 24 23 19 19 19 18 16 14 15 18 21 23 21 20 20 22 25 24 24 24 25 26 28 27 24 22 27 31
18 16 10 9 8 14 13 16 11 7 11 10 5 7 9 10 15 23 28 28 26 26 24 18 18 19 20 20 17 18 20 21 16 21 23 22 22 18 21 20 23 24 24 21 17 16 20 24 27
13 15 15 17 15 17 19 12 5 6 6 3 2 4 12 21 30 31 27 25 24 23 20 19 19 19 20 22 21 19 20 15 10 14 18 24 22 22 21 17 15 16 17 16 18 20 25 24 23
17 19 19 13 17 16 14 23 11 11 5 6 9 17 29 27 24 26 25 24 23 20 19 20 19 19 19 21 20 19 23 20 14 27 21 22 28 26 22 21 21 19 19 19 21 22 20 20 20
Wind_Direction
302 306 290 252 241 232 250 130 31 148 178 42 19 343 12 25 14 17 90 171 132 161 192 176 174 177 177 178 181 183 182 182 186 181 188 192 192 192 191 189 161 163 169 162 149 128 142 144 171
245 248 239 278 253 230 135 79 197 52 31 344 230 190 300 71 48 82 65 160 150 162 191 173 174 178 183 183 189 191 187 187 190 192 190 196 197 199 193 183 185 201 205 212 229 199 162 181 187
151 224 259 239 265 315 62 111 357 12 200 225 204 358 23 60 48 99 126 145 176 182 177 191 177 181 185 190 194 194 193 195 197 195 196 198 205 196 202 207 218 213 202 211 218 214 214 208 201
187 203 230 250 240 71 2 21 1 306 113 202 231 156 103 87 86 134 142 151 163 165 172 196 183 186 185 191 195 197 197 201 204 198 199 204 208 208 212 217 225 222 214 218 217 208 204 206 197
223 255 232 231 130 95 356 22 11 12 109 145 202 126 94 123 116 125 141 154 160 160 179 202 188 187 187 191 192 193 200 200 203 202 204 210 209 209 211 217 221 225 219 219 218 209 197 197 190
250 275 249 243 106 148 110 59 300 103 94 107 216 253 99 150 139 140 150 158 164 166 187 189 184 181 182 188 191 196 201 202 199 199 202 212 215 215 214 222 224 227 221 219 221 213 200 189 179
255 255 282 305 75 220 129 336 338 330 242 130 6 254 115 137 164 153 160 163 168 169 186 192 180 182 185 191 196 201 202 203 203 207 212 214 219 219 222 230 229 227 227 224 215 206 194 178 165
286 282 271 212 218 227 127 282 344 268 62 54 289 335 101 168 171 161 161 172 174 190 183 191 181 187 190 194 200 207 208 212 215 217 221 220 221 222 229 233 231 228 225 217 209 202 192 182 169
263 268 256 202 232 120 141 264 182 267 273 189 316 299 80 156 172 173 175 179 186 187 187 193 191 193 196 200 206 208 216 220 221 216 224 225 226 222 220 222 222 223 219 213 207 203 197 188 171
242 256 318 24 348 269 209 229 274 268 244 218 202 212 171 174 180 185 192 197 198 192 194 195 197 193 202 199 213 205 213 216 226 228 228 236 204 200 197 223 215 219 218 214 202 198 194 184 165
251 256 354 291 277 294 294 284 268 256 262 261 264 265 183 191 205 213 215 212 204 204 194 194 199 201 200 207 208 206 207 215 224 227 227 226 212 213 211 219 212 217 215 213 208 197 167 165 176
255 245 278 283 291 266 274 285 283 276 276 283 286 290 253 214 218 218 223 217 212 206 206 195 205 206 205 214 214 222 232 222 227 226 230 234 234 231 204 212 216 220 216 212 202 183 187 186 184
246 260 262 256 262 267 276 272 268 274 279 288 277 261 251 239 232 230 226 221 215 207 209 209 207 212 210 219 220 228 224 224 234 237 239 240 235 227 222 217 220 214 206 203 198 193 189 180 174
317 278 271 263 257 258 261 271 219 265 198 280 278 265 252 238 237 231 227 220 215 219 212 221 222 225 224 229 231 233 235 239 240 239 239 241 232 220 224 225 220 211 204 202 195 194 184 179 173
278 271 268 249 237 249 257 258 245 234 212 273 250 265 260 243 233 230 231 228 227 220 223 221 224 227 231 230 234 234 238 242 242 240 241 241 242 234 229 229 222 208 205 198 198 193 185 180 175
255 259 272 78 165 195 237 286 158 184 260 284 287 262 249 244 242 240 240 240 238 227 223 223 230 227 228 221 235 236 239 239 240 244 242 239 236 229 232 231 223 204 203 197 194 191 191 186 178
206 282 284 315 144 266 223 292 324 311 247 274 277 272 271 275 254 234 248 243 235 232 224 222 246 241 233 226 232 242 245 236 238 239 242 241 232 230 229 221 213 209 205 198 195 191 191 189 182
344 312 306 304 147 195 255 271 282 277 274 266 261 275 275 264 208 314 303 268 245 236 230 226 221 242 235 233 225 227 224 227 224 221 221 224 224 225 222 206 207 210 201 200 197 193 192 191 184
301 285 281 284 296 307 276 277 273 272 267 254 245 252 152 235 204 26 24 19 327 240 233 229 226 251 239 232 224 233 231 234 233 221 218 218 218 219 219 200 209 217 200 201 196 192 190 189 185
277 281 284 296 276 268 293 286 282 263 257 264 258 143 169 193 151 85 66 55 63 125 215 221 253 248 241 242 245 246 241 238 240 230 216 212 212 213 210 202 210 218 204 202 200 189 191 190 184
272 273 295 303 309 283 273 284 262 75 155 112 111 118 158 149 120 88 65 57 66 72 114 219 235 242 244 239 247 254 242 233 222 219 215 210 210 215 209 207 202 213 201 207 202 193 191 189 187
283 350 293 291 296 291 322 293 277 273 214 152 139 158 151 125 107 77 65 55 45 38 6 338 292 272 254 251 254 258 250 232 220 209 208 215 215 213 213 207 200 199 202 201 199 195 196 191 188
283 319 290 289 284 288 275 267 258 193 217 182 152 165 166 142 115 87 77 68 55 46 358 342 331 304 288 273 263 255 251 246 240 230 226 230 226 224 223 219 217 203 198 202 197 196 199 196 197
286 292 277 269 263 268 277 272 271 272 203 137 130 159 154 162 174 145 88 68 33 5 351 335 324 308 296 289 283 274 267 260 250 244 239 240 240 240 234 237 225 213 210 213 204 198 199 200 206
236 283 293 277 251 262 282 266 266 283 158 135 153 169 177 164 193 212 268 291 302 308 310 322 313 309 288 255 263 266 262 264 263 255 248 241 236 234 235 226 223 216 210 210 212 214 215 203 205
289 260 268 292 296 296 312 279 332 77 124 162 175 174 191 196 208 265 288 297 297 292 286 284 278 268 251 252 261 265 262 255 249 249 243 242 246 246 235 228 217 209 205 205 205 208 220 217 208
282 238 270 282 276 278 268 265 234 144 154 182 181 187 209 244 273 289 300 299 303 297 276 270 272 271 255 248 253 257 254 246 249 242 246 246 247 238 229 224 213 206 207 202 198 201 217 224 217
255 274 249 228 273 264 266 283 310 159 189 176 204 219 234 271 292 293 302 303 299 297 292 270 269 267 261 251 250 251 253 246 235 249 250 251 250 243 228 220 220 209 202 195 188 212 224 224 226
242 230 251 266 268 274 283 268 82 23 7 9 221 250 280 298 307 305 303 303 298 295 286 280 266 264 262 253 258 264 267 224 239 273 273 269 235 229 213 225 211 205 206 199 203 214 224 216 211
267 266 255 238 249 247 260 267 298 281 267 294 293 298 305 304 303 302 303 304 302 297 282 281 270 261 259 261 260 266 272 278 285 282 275 269 243 229 214 219 219 216 216 210 209 210 212 203 204